CW4957 Weather Reports


Display with metric or nautical units.
time (UTC)temp
F
wind
direction
speed
MPH
gust
MPH
rain 1hr
in
rain 24hr
in
rain mn
in
humidity
%
barometer
mb
20260906082308 61 293 0.0 0.0 0.01 0.26 0.18 94 1013.0
20260906081758 61 293 0.0 0.0 0.01 0.26 0.18 94 1013.0
20260906081247 61 293 0.0 0.0 0.01 0.26 0.18 94 1013.0
20260906080804 61 293 0.0 0.0 0.01 0.26 0.18 94 1012.8
20260906080252 61 293 0.0 0.0 0.01 0.26 0.18 94 1012.8
20260906075759 61 293 0.0 0.0 0.01 0.26 0.18 94 1012.8
20260906075306 61 293 0.0 0.0 0.00 0.25 0.17 94 1012.9
20260906074753 61 293 0.0 0.0 0.00 0.25 0.17 94 1012.9
20260906074316 61 293 0.0 0.0 0.01 0.25 0.17 94 1012.9
20260906073806 61 293 0.0 0.0 0.01 0.25 0.17 94 1012.9
20260906073251 61 293 0.0 0.0 0.01 0.25 0.17 93 1012.9
20260906072817 61 293 0.0 0.0 0.01 0.25 0.17 94 1012.9
20260906072305 61 293 0.0 0.0 0.01 0.25 0.17 94 1012.9
20260906071804 61 293 0.0 0.0 0.02 0.25 0.17 94 1012.9
20260906071304 61 293 0.0 0.0 0.02 0.25 0.17 93 1012.9
20260906070808 61 293 0.0 0.0 0.03 0.25 0.17 93 1013.0
20260906070257 61 293 0.0 0.0 0.03 0.25 0.17 93 1013.0
20260906065802 61 293 0.0 0.0 0.03 0.25 0.17 93 1013.0
20260906065306 61 293 0.0 0.0 0.03 0.25 0.17 93 1013.0
20260906064753 61 293 0.0 0.0 0.03 0.25 0.17 93 1013.0
20260906064304 61 293 0.0 0.0 0.03 0.24 0.16 92 1013.0
20260906063750 61 293 0.0 0.0 0.05 0.24 0.16 92 1013.1
20260906063256 61 293 0.0 0.0 0.05 0.24 0.16 92 1013.1
20260906062821 61 293 0.0 0.0 0.05 0.24 0.16 92 1013.1
20260906062306 61 293 0.0 1.0 0.05 0.24 0.16 92 1013.1
20260906061751 61 295 0.0 0.0 0.05 0.23 0.15 92 1013.1
20260906061254 61 295 0.0 0.0 0.05 0.23 0.15 92 1013.1
20260906060757 61 295 0.0 0.0 0.04 0.22 0.14 92 1013.1
20260906060321 61 295 0.0 0.0 0.04 0.22 0.14 92 1013.1
20260906055753 61 295 0.0 0.0 0.04 0.22 0.14 91 1013.1
20260906055251 61 295 0.0 0.0 0.04 0.22 0.14 91 1013.1
20260906054756 61 295 0.0 0.0 0.04 0.22 0.14 91 1013.1
20260906054322 62 295 0.0 0.0 0.02 0.20 0.12 91 1013.1
20260906053759 62 295 0.0 0.0 0.02 0.19 0.11 91 1013.1
20260906053303 62 295 0.0 0.0 0.02 0.19 0.11 91 1013.1
20260906052755 62 295 0.0 0.0 0.03 0.19 0.11 91 1013.1
20260906052305 62 295 0.0 0.0 0.04 0.19 0.11 91 1013.1
20260906051826 62 295 0.0 0.0 0.05 0.18 0.10 91 1013.1
20260906051309 62 295 0.0 0.0 0.06 0.18 0.10 91 1013.1
20260906050758 62 295 0.0 0.0 0.08 0.18 0.10 91 1013.1
20260906050303 62 295 0.0 0.0 0.08 0.18 0.10 91 1013.1
20260906045805 63 295 0.0 0.0 0.09 0.18 0.10 91 1013.1
20260906045314 63 295 0.0 0.0 0.10 0.18 0.10 91 1013.1
20260906044813 63 295 0.0 0.0 0.11 0.18 0.10 91 1013.1
20260906044326 63 295 0.0 0.0 0.13 0.18 0.10 91 1013.1
20260906043750 63 295 0.0 0.0 0.13 0.17 0.09 91 1013.1
20260906043255 63 295 0.0 0.0 0.15 0.17 0.09 90 1013.1
20260906042822 63 295 0.0 0.0 0.15 0.16 0.08 90 1013.1
20260906042251 63 295 0.0 0.0 0.15 0.15 0.07 90 1013.0
20260906041755 63 295 0.0 0.0 0.13 0.13 0.05 90 1013.0
20260906041325 64 295 0.0 0.0 0.12 0.12 0.04 90 1013.0
20260906040810 64 295 0.0 0.0 0.10 0.10 0.02 90 1013.0
20260906040312 64 295 0.0 0.0 0.10 0.10 0.02 90 1013.0
20260906035817 64 295 0.0 0.0 0.09 0.09 0.01 89 1013.0
20260906035306 64 295 0.0 0.0 0.08 0.08 0.08 89 1012.8
20260906034808 64 295 0.0 0.0 0.06 0.06 0.06 89 1012.8
20260906034251 64 295 0.0 0.0 0.05 0.05 0.05 89 1012.8
20260906033755 65 295 0.0 0.0 0.03 0.03 0.03 88 1012.6
20260906033304 65 295 0.0 0.0 0.02 0.02 0.02 88 1012.6
20260906032752 65 295 0.0 0.0 0.01 0.01 0.01 87 1012.6
20260906032319 65 295 0.0 0.0 0.00 0.00 0.00 87 1012.5
20260906031807 65 295 0.0 0.0 0.00 0.00 0.00 86 1012.5
20260906031314 65 295 0.0 0.0 0.00 0.00 0.00 86 1012.5
20260906030759 65 295 0.0 0.0 0.00 0.00 0.00 86 1012.2
20260906030301 65 295 0.0 0.0 0.00 0.00 0.00 86 1012.2
20260906025813 65 295 0.0 0.0 0.00 0.00 0.00 86 1012.2
20260906025259 65 295 0.0 0.0 0.00 0.00 0.00 86 1012.1
20260906024749 65 295 0.0 0.0 0.00 0.00 0.00 86 1012.1
20260906024254 65 295 0.0 0.0 0.00 0.00 0.00 86 1012.1
20260906023755 65 295 0.0 0.0 0.00 0.00 0.00 86 1012.2
20260906023318 65 295 0.0 0.0 0.00 0.00 0.00 86 1012.2
20260906022805 65 295 0.0 0.0 0.00 0.00 0.00 86 1012.2
20260906022309 65 295 0.0 0.0 0.00 0.00 0.00 86 1012.1
20260906021755 66 295 0.0 0.0 0.00 0.00 0.00 86 1012.1
20260906021248 66 295 0.0 0.0 0.00 0.00 0.00 87 1012.1
20260906020801 66 295 0.0 0.0 0.00 0.00 0.00 86 1012.0
20260906020308 66 295 0.0 2.0 0.00 0.00 0.00 86 1012.0
20260906015757 66 295 0.0 2.0 0.00 0.00 0.00 87 1012.0
20260906015305 66 295 0.0 0.0 0.00 0.00 0.00 87 1011.8
20260906014829 66 295 0.0 0.0 0.00 0.00 0.00 87 1011.8
20260906014254 66 295 0.0 0.0 0.00 0.00 0.00 87 1011.8
20260906013806 66 295 0.0 0.0 0.00 0.00 0.00 87 1011.9
20260906013254 67 295 0.0 0.0 0.00 0.00 0.00 87 1011.9
20260906012802 67 295 0.0 2.0 0.00 0.00 0.00 86 1011.9
20260906012325 67 295 1.0 2.0 0.00 0.00 0.00 86 1011.7
20260906011812 67 295 0.0 0.0 0.00 0.00 0.00 86 1011.7
20260906011257 67 295 0.0 0.0 0.00 0.00 0.00 86 1011.7
20260906010802 68 295 0.0 0.0 0.00 0.00 0.00 86 1011.7
20260906010326 68 295 0.0 3.0 0.00 0.00 0.00 86 1011.7
20260906005750 68 295 0.0 3.0 0.00 0.00 0.00 86 1011.7
20260906005256 68 27 0.0 0.0 0.00 0.00 0.00 86 1011.5
20260906004809 68 27 0.0 0.0 0.00 0.00 0.00 85 1011.5
20260906004257 68 27 0.0 0.0 0.00 0.00 0.00 85 1011.5
20260906003803 68 27 0.0 0.0 0.00 0.00 0.00 84 1011.3
20260906003252 68 27 0.0 0.0 0.00 0.00 0.00 84 1011.3
20260906002757 68 27 0.0 0.0 0.00 0.00 0.00 84 1011.3
20260906002305 68 27 0.0 0.0 0.00 0.00 0.00 84 1011.1
20260906001810 69 27 0.0 0.0 0.00 0.00 0.00 84 1011.1
20260906001254 69 27 0.0 0.0 0.00 0.00 0.00 84 1011.1
20260906000755 69 27 0.0 0.0 0.00 0.00 0.00 83 1011.0
20260906000258 69 27 0.0 0.0 0.00 0.00 0.00 83 1011.0
20260905235803 69 27 0.0 0.0 0.00 0.00 0.00 82 1011.0
20260905235407 70 27 0.0 0.0 0.00 0.00 0.00 82 1010.8
20260905234755 70 27 0.0 0.0 0.00 0.00 0.00 82 1010.8
20260905234303 70 27 0.0 1.0 0.00 0.00 0.00 81 1010.8
20260905233807 70 27 0.0 1.0 0.00 0.00 0.00 80 1010.5
20260905233250 71 27 0.0 2.0 0.00 0.00 0.00 81 1010.5
20260905232818 71 27 0.0 2.0 0.00 0.00 0.00 80 1010.5
20260905232306 71 27 0.0 1.0 0.00 0.00 0.00 78 1010.5
20260905231749 71 27 0.0 0.0 0.00 0.00 0.00 76 1010.5
20260905231252 71 27 0.0 0.0 0.00 0.00 0.00 75 1010.5
20260905230804 72 27 0.0 0.0 0.00 0.00 0.00 75 1010.4
20260905230308 72 27 0.0 0.0 0.00 0.00 0.00 75 1010.4
20260905225758 72 27 0.0 1.0 0.00 0.00 0.00 75 1010.4
20260905225305 72 27 0.0 1.0 0.00 0.00 0.00 73 1010.4
20260905224804 72 27 0.0 0.0 0.00 0.00 0.00 71 1010.4
20260905224308 72 27 0.0 0.0 0.00 0.00 0.00 71 1010.4
20260905223755 72 27 0.0 0.0 0.00 0.00 0.00 71 1010.2
20260905223306 72 27 0.0 0.0 0.00 0.00 0.00 70 1010.2
20260905222814 73 27 0.0 0.0 0.00 0.00 0.00 69 1010.2
20260905222301 73 27 0.0 0.0 0.00 0.00 0.00 69 1010.0
20260905221749 73 27 0.0 0.0 0.00 0.00 0.00 68 1010.0
20260905221259 73 27 0.0 0.0 0.00 0.00 0.00 67 1010.0
20260905220805 73 27 0.0 0.0 0.00 0.00 0.00 68 1009.9
20260905220250 74 27 0.0 0.0 0.00 0.00 0.00 67 1009.9
20260905215814 74 27 0.0 1.0 0.00 0.00 0.00 68 1009.9
20260905215300 74 27 0.0 0.0 0.00 0.00 0.00 67 1009.9
20260905214750 75 27 0.0 3.0 0.00 0.00 0.00 65 1009.9
20260905214255 75 27 1.0 3.0 0.00 0.00 0.00 64 1009.9
20260905213759 75 27 0.0 2.0 0.00 0.00 0.00 64 1009.6
20260905213250 75 26 0.0 0.0 0.00 0.00 0.00 63 1009.6
20260905212758 76 26 0.0 1.0 0.00 0.00 0.00 62 1009.6
20260905212319 76 26 0.0 1.0 0.00 0.00 0.00 62 1009.3
20260905211827 76 26 0.0 0.0 0.00 0.00 0.00 62 1009.3
20260905211252 76 26 0.0 1.0 0.00 0.00 0.00 61 1009.3
20260905210756 76 26 0.0 1.0 0.00 0.00 0.00 61 1009.2
20260905210304 76 26 0.0 1.0 0.00 0.00 0.00 60 1009.2
20260905205750 76 26 0.0 1.0 0.00 0.00 0.00 61 1009.2
20260905205259 77 26 0.0 4.0 0.00 0.00 0.00 60 1009.2
20260905204802 77 26 1.0 4.0 0.00 0.00 0.00 59 1009.2
20260905204306 77 299 1.0 2.0 0.00 0.00 0.00 60 1009.2
20260905203752 77 298 0.0 2.0 0.00 0.00 0.00 61 1009.1
20260905203322 77 298 0.0 2.0 0.00 0.00 0.00 61 1009.1
20260905202805 77 298 0.0 2.0 0.00 0.00 0.00 60 1009.1
20260905202308 77 298 1.0 3.0 0.00 0.00 0.00 62 1009.0
20260905201751 76 243 1.0 3.0 0.00 0.00 0.00 62 1009.0
20260905201257 76 226 1.0 3.0 0.00 0.00 0.00 62 1009.0
20260905200804 75 38 0.0 1.0 0.00 0.00 0.00 63 1008.9
20260905200253 75 38 0.0 1.0 0.00 0.00 0.00 65 1008.9
20260905195820 75 38 0.0 1.0 0.00 0.00 0.00 64 1008.9
20260905195306 74 34 0.0 1.0 0.00 0.00 0.00 66 1009.1
20260905194751 74 34 0.0 0.0 0.00 0.00 0.00 63 1009.1
20260905194258 75 34 0.0 0.0 0.00 0.00 0.00 64 1009.1
20260905193806 75 34 0.0 0.0 0.00 0.00 0.00 63 1009.2
20260905193251 75 34 0.0 4.0 0.00 0.00 0.00 61 1009.2
20260905192757 75 34 0.0 4.0 0.00 0.00 0.00 60 1009.2
20260905192322 76 42 2.0 3.0 0.00 0.00 0.00 59 1008.9
20260905191807 76 33 1.0 3.0 0.00 0.00 0.00 58 1008.9
20260905191250 77 32 0.0 1.0 0.00 0.00 0.00 56 1008.9
20260905190758 77 32 0.0 1.0 0.00 0.00 0.00 56 1009.0
20260905190302 77 32 0.0 2.0 0.00 0.00 0.00 56 1009.0
20260905185804 77 32 1.0 2.0 0.00 0.00 0.00 59 1009.0
20260905185247 76 32 0.0 1.0 0.00 0.00 0.00 59 1008.9
20260905184819 76 33 0.0 1.0 0.00 0.00 0.00 64 1008.9
20260905184321 76 33 0.0 2.0 0.00 0.00 0.00 61 1008.9
20260905183826 75 33 0.0 1.0 0.00 0.00 0.00 61 1009.1
20260905183250 75 33 0.0 0.0 0.00 0.00 0.00 62 1009.1
20260905182758 75 33 0.0 0.0 0.00 0.00 0.00 62 1009.1
20260905182308 75 33 0.0 0.0 0.00 0.00 0.00 63 1009.2
20260905181756 75 33 0.0 0.0 0.00 0.00 0.00 62 1009.2
20260905181302 76 33 0.0 0.0 0.00 0.00 0.00 60 1009.2
20260905180828 76 33 0.0 0.0 0.00 0.00 0.00 59 1009.1
20260905180253 76 33 0.0 2.0 0.00 0.00 0.00 59 1009.1
20260905175801 76 33 0.0 2.0 0.00 0.00 0.00 57 1009.1
20260905175306 77 33 0.0 2.0 0.00 0.00 0.00 56 1009.0
20260905174747 77 32 1.0 2.0 0.00 0.00 0.00 55 1009.0
20260905174301 78 32 0.0 1.0 0.00 0.00 0.00 56 1009.0
20260905173811 78 32 0.0 1.0 0.00 0.00 0.00 56 1009.0
20260905173251 78 32 0.0 3.0 0.00 0.00 0.00 57 1009.0
20260905172753 77 32 1.0 3.0 0.00 0.00 0.00 57 1009.0
20260905172305 77 98 0.0 0.0 0.00 0.00 0.00 57 1009.1
20260905171751 77 98 0.0 0.0 0.00 0.00 0.00 58 1009.1
20260905171317 77 99 0.0 1.0 0.00 0.00 0.00 58 1009.1
20260905170749 77 98 0.0 2.0 0.00 0.00 0.00 56 1008.9
20260905170253 77 30 0.0 1.0 0.00 0.00 0.00 58 1008.9
20260905165804 77 59 0.0 1.0 0.00 0.00 0.00 59 1008.9
20260905165250 76 58 0.0 3.0 0.00 0.00 0.00 60 1009.1
20260905164759 75 39 0.0 4.0 0.00 0.00 0.00 60 1009.1
20260905164305 75 31 2.0 5.0 0.00 0.00 0.00 59 1009.1
20260905163753 75 42 2.0 5.0 0.00 0.00 0.00 59 1009.3
20260905163259 74 74 0.0 2.0 0.00 0.00 0.00 63 1009.3
20260905162756 74 73 1.0 4.0 0.00 0.00 0.00 64 1009.3
20260905162305 74 39 1.0 4.0 0.00 0.00 0.00 64 1009.4
20260905161747 74 360 0.0 1.0 0.00 0.00 0.00 66 1009.4
20260905161319 74 360 0.0 0.0 0.00 0.00 0.00 63 1009.4
20260905160808 74 360 0.0 1.0 0.00 0.00 0.00 62 1009.4
20260905160257 75 360 0.0 3.0 0.00 0.00 0.00 63 1009.4
20260905155801 75 43 0.0 2.0 0.00 0.00 0.00 64 1009.4
20260905155308 75 30 0.0 3.0 0.00 0.00 0.00 64 1009.6
20260905154814 74 26 1.0 3.0 0.00 0.00 0.00 64 1009.6
20260905154300 74 30 1.0 3.0 0.00 0.00 0.00 64 1009.6
20260905153806 74 96 0.0 1.0 0.00 0.00 0.00 67 1009.5
20260905153308 74 355 0.0 3.0 0.00 0.00 0.00 66 1009.5
20260905152754 74 355 0.0 5.0 0.00 0.00 0.00 69 1009.5
20260905152259 73 5 0.0 5.0 0.00 0.00 0.00 68 1009.6
20260905151803 73 5 1.0 3.0 0.00 0.00 0.00 69 1009.6
20260905151251 72 17 0.0 3.0 0.00 0.00 0.00 70 1009.6
20260905150750 71 5 1.0 3.0 0.00 0.00 0.00 72 1009.6
20260905150313 71 38 0.0 2.0 0.00 0.00 0.00 71 1009.6
20260905145800 71 40 0.0 5.0 0.00 0.00 0.00 70 1009.6
20260905145307 71 40 1.0 5.0 0.00 0.00 0.00 69 1009.7
20260905144750 71 355 0.0 4.0 0.00 0.00 0.00 70 1009.7
20260905144256 71 40 1.0 4.0 0.00 0.00 0.00 70 1009.7
20260905143804 71 11 1.0 3.0 0.00 0.00 0.00 70 1009.7
20260905143253 71 35 0.0 3.0 0.00 0.00 0.00 71 1009.7
20260905142755 71 323 0.0 4.0 0.00 0.00 0.00 73 1009.7
20260905142306 71 51 1.0 4.0 0.00 0.00 0.00 73 1009.9
20260905141752 70 38 0.0 3.0 0.00 0.00 0.00 76 1009.9
20260905141300 70 38 0.0 3.0 0.00 0.00 0.00 76 1009.9
20260905140807 69 40 1.0 3.0 0.00 0.00 0.00 78 1009.9
20260905140253 68 40 0.0 4.0 0.00 0.00 0.00 81 1009.9
20260905135800 68 40 1.0 4.0 0.00 0.00 0.00 83 1009.9
20260905135320 67 302 2.0 3.0 0.00 0.00 0.00 87 1009.9
20260905134805 66 32 0.0 2.0 0.00 0.00 0.00 91 1009.9
20260905134314 65 360 0.0 2.0 0.00 0.00 0.00 93 1009.9
20260905133756 65 153 0.0 0.0 0.00 0.00 0.00 93 1009.9
20260905133303 64 153 0.0 0.0 0.00 0.00 0.00 94 1009.9
20260905132753 64 153 0.0 0.0 0.00 0.00 0.00 94 1009.9
20260905132258 64 153 0.0 0.0 0.00 0.00 0.00 95 1010.0
20260905131800 63 153 0.0 1.0 0.00 0.00 0.00 95 1010.0
20260905131309 63 153 0.0 1.0 0.00 0.00 0.00 95 1010.0
20260905130751 63 153 0.0 0.0 0.00 0.00 0.00 95 1010.0
20260905130257 63 153 0.0 0.0 0.00 0.00 0.00 95 1010.0
20260905125803 63 153 0.0 0.0 0.00 0.00 0.00 96 1010.0
20260905125254 63 153 0.0 1.0 0.00 0.00 0.00 96 1009.9
20260905124802 62 153 0.0 1.0 0.00 0.00 0.00 96 1009.9
20260905124305 62 153 0.0 0.0 0.00 0.00 0.00 96 1009.9
20260905123750 62 153 0.0 0.0 0.00 0.00 0.00 96 1009.9
20260905123259 62 153 0.0 1.0 0.00 0.00 0.00 97 1009.9
20260905122801 61 153 0.0 1.0 0.00 0.00 0.00 96 1009.9
20260905122307 60 153 0.0 0.0 0.00 0.00 0.00 96 1009.8
20260905121749 60 153 0.0 0.0 0.00 0.00 0.00 96 1009.8
20260905121254 59 153 0.0 0.0 0.00 0.00 0.00 96 1009.8
20260905120758 59 153 0.0 0.0 0.00 0.00 0.00 95 1009.5
20260905120247 58 153 0.0 0.0 0.00 0.00 0.00 95 1009.5
20260905115755 58 153 0.0 0.0 0.00 0.00 0.00 94 1009.5
20260905115305 58 153 0.0 0.0 0.00 0.00 0.00 94 1009.4
20260905114828 58 153 0.0 0.0 0.00 0.00 0.00 94 1009.4
20260905114318 58 153 0.0 0.0 0.00 0.00 0.00 94 1009.4
20260905113805 58 153 0.0 0.0 0.00 0.00 0.00 94 1009.4
20260905113253 58 153 0.0 0.0 0.00 0.00 0.00 94 1009.4
20260905112804 58 153 0.0 0.0 0.00 0.00 0.00 94 1009.4
20260905112254 58 153 0.0 0.0 0.00 0.00 0.00 94 1009.3
20260905111801 58 153 0.0 0.0 0.00 0.00 0.00 93 1009.3
20260905111305 58 153 0.0 0.0 0.00 0.00 0.00 93 1009.3
20260905110800 58 153 0.0 0.0 0.00 0.00 0.00 93 1009.1
20260905110304 58 153 0.0 0.0 0.00 0.00 0.00 93 1009.1
20260905105749 58 153 0.0 0.0 0.00 0.00 0.00 93 1009.1
20260905105305 58 153 0.0 0.0 0.00 0.00 0.00 93 1009.0
20260905104807 58 153 0.0 0.0 0.00 0.00 0.00 93 1009.0
20260905104251 58 153 0.0 0.0 0.00 0.00 0.00 93 1009.0
20260905103757 58 153 0.0 0.0 0.00 0.00 0.00 93 1008.9
20260905103326 58 153 0.0 0.0 0.00 0.00 0.00 92 1008.9
20260905102750 58 153 0.0 0.0 0.00 0.00 0.00 92 1008.9
20260905102254 58 153 0.0 0.0 0.00 0.00 0.00 92 1008.9
20260905101807 58 153 0.0 0.0 0.00 0.00 0.00 92 1008.9
20260905101311 58 153 0.0 0.0 0.00 0.00 0.00 92 1008.9
20260905100814 58 153 0.0 0.0 0.00 0.00 0.00 92 1008.9
20260905100300 58 153 0.0 0.0 0.00 0.00 0.00 92 1008.9
20260905095825 58 153 0.0 0.0 0.00 0.00 0.00 92 1008.9
20260905095329 58 153 0.0 0.0 0.00 0.00 0.00 92 1008.8
20260905094813 58 153 0.0 0.0 0.00 0.00 0.00 92 1008.8
20260905094301 59 153 0.0 0.0 0.00 0.00 0.00 92 1008.8
20260905093747 59 153 0.0 0.0 0.00 0.00 0.00 91 1008.7
20260905093258 59 153 0.0 0.0 0.00 0.00 0.00 91 1008.7
20260905092749 59 153 0.0 0.0 0.00 0.00 0.00 91 1008.7
20260905092313 59 153 0.0 0.0 0.00 0.00 0.00 91 1008.6
20260905091802 59 153 0.0 0.0 0.00 0.00 0.00 91 1008.6
20260905091307 59 153 0.0 0.0 0.00 0.00 0.00 91 1008.6
20260905090754 59 153 0.0 0.0 0.00 0.00 0.00 91 1008.5
20260905090319 59 153 0.0 0.0 0.00 0.00 0.00 91 1008.5
20260905085805 59 153 0.0 0.0 0.00 0.00 0.00 91 1008.5
20260905085249 59 153 0.0 0.0 0.00 0.00 0.00 91 1008.4
20260905084813 59 153 0.0 0.0 0.00 0.00 0.00 91 1008.4
20260905084302 60 153 0.0 0.0 0.00 0.00 0.00 91 1008.4
20260905083749 60 153 0.0 0.0 0.00 0.00 0.00 91 1008.4
20260905083258 60 153 0.0 0.0 0.00 0.00 0.00 91 1008.4
20260905082801 60 153 0.0 0.0 0.00 0.00 0.00 91 1008.4